Vorticity
7 6 8 9 8 9 13 9 17 19 16 16 10 11 15 9 8 10 16 24 12 14 29 -3 11 18 25 9 22 9 12 14 4 7 6 8 7 7 4 7 7 3 2 0 1 3 3
10 8 8 10 8 9 12 1 8 -2 8 5 19 14 17 22 15 12 22 23 9 16 18 19 24 34 -3 -17 28 16 5 11 6 8 8 8 7 2 5 9 0 11 8 5 5 6 4
15 6 7 10 9 10 11 6 8 -1 -5 1 16 36 22 6 17 15 17 11 17 11 4 20 1 -1 43 -5 13 15 8 9 7 7 9 8 6 3 7 8 1 15 6 8 6 6 6
11 9 7 8 12 8 11 3 8 2 -3 10 15 -4 17 16 5 14 15 31 15 30 10 9 3 10 -15 23 13 12 5 8 8 7 11 11 7 4 11 0 8 3 7 6 12 9 9
11 16 6 8 11 9 10 5 2 7 10 -1 -3 2 5 31 11 13 35 19 -1 11 3 17 15 8 10 -1 5 7 12 6 7 10 9 9 10 8 8 11 8 10 24 7 5 6 5
13 13 10 7 7 14 9 10 4 -3 11 -3 2 0 -3 8 14 21 1 7 33 -10 30 -4 6 15 10 15 15 14 15 7 7 8 7 9 6 6 9 5 11 15 2 9 5 11 7
12 13 20 6 7 9 16 9 9 12 4 6 -2 1 5 -5 7 39 21 32 19 11 34 40 16 10 10 15 10 9 18 12 10 11 10 9 9 7 7 8 14 11 7 10 10 7 6
9 11 12 14 6 7 10 17 13 10 9 5 10 5 -3 6 10 -15 17 25 22 6 3 16 7 14 10 7 1 1 3 3 12 10 10 9 12 7 5 4 3 4 3 4 3 4 3
7 11 12 21 7 7 6 10 15 15 12 9 10 9 1 14 14 11 0 -15 -13 -6 2 3 18 13 7 10 12 7 8 6 8 5 5 -1 10 8 5 9 5 4 6 5 4 5 5
7 9 10 11 21 6 8 5 8 14 16 15 11 10 3 8 12 14 10 -8 -14 1 -35 7 13 5 -1 1 7 9 10 12 3 11 5 2 11 11 10 9 6 9 9 6 5 12 9
4 8 10 13 13 14 5 8 7 8 10 17 15 17 13 8 10 12 11 12 17 17 -7 4 4 21 16 27 8 8 10 8 4 -1 14 20 7 6 7 6 8 9 5 6 11 10 11
2 5 8 11 13 19 8 5 7 8 9 7 7 14 14 18 12 7 4 6 12 8 5 4 16 7 11 13 12 10 19 12 8 11 20 9 9 5 8 9 10 1 8 14 10 9 22
4 2 5 7 13 12 21 5 4 7 7 8 8 10 7 11 22 17 6 5 1 20 -4 1 9 14 9 12 5 12 8 0 7 0 8 3 9 10 12 6 9 9 18 9 13 11 -2
5 4 3 5 7 13 13 20 6 5 8 7 8 5 18 4 24 8 22 10 -2 28 35 6 3 8 2 -7 1 13 16 17 14 20 -1 12 -4 7 10 5 9 8 9 12 7 6 -5
5 4 4 3 6 8 13 16 15 5 6 9 7 7 10 11 10 11 24 16 28 -10 8 0 -6 -6 -1 10 4 2 -6 7 15 14 15 5 7 4 7 5 5 10 10 7 5 15 14
6 5 4 3 3 6 9 13 18 12 7 7 10 6 9 11 10 23 23 22 22 12 6 4 8 12 15 5 6 7 13 5 5 10 8 10 8 6 2 4 9 4 7 8 12 6 10
7 6 6 5 4 5 7 8 14 19 11 5 8 5 9 6 13 9 12 8 9 5 1 12 14 9 8 5 6 7 13 3 7 13 10 21 12 13 3 17 11 17 7 11 7 4 1
8 7 6 6 4 4 6 8 8 14 19 12 6 7 10 12 12 6 7 9 7 4 5 6 5 5 7 7 3 3 8 16 8 12 6 11 8 11 12 9 8 1 2 5 2 19 0
7 8 8 6 6 5 3 6 6 9 14 18 13 7 5 10 3 7 3 5 8 9 8 13 14 11 12 10 2 8 10 6 6 5 4 7 5 10 16 18 14 1 7 13 10 -3 18
7 8 9 8 6 6 5 3 5 6 11 13 20 13 10 5 6 9 4 7 5 4 6 8 8 9 5 3 8 2 6 6 5 7 8 6 3 -2 -15 -10 -2 -7 -2 -9 12 5 -3
6 7 8 8 6 6 5 5 4 4 6 12 11 7 13 4 7 5 7 8 6 7 6 7 5 6 6 4 10 3 4 0 8 11 4 6 6 6 11 3 5 6 12 11 5 6 -20
6 8 7 8 7 7 5 5 5 5 3 8 13 9 15 12 17 11 5 4 6 6 6 8 5 4 4 5 3 2 5 6 17 4 3 -1 5 -11 7 32 24 10 7 9 10 9 8
5 4 7 9 8 8 4 5 6 5 6 4 9 9 8 13 11 13 16 10 4 4 13 12 9 6 5 5 6 5 1 5 1 3 3 10 9 -4 26 9 -9 59 67 32 45 36 22
3 4 4 6 8 7 4 10 5 5 5 6 4 9 10 7 13 11 12 9 10 7 5 3 3 4 5 2 3 6 8 14 15 13 14 1 0 21 0 40 24 2 -7 -7 -2 10 20
6 5 5 3 4 4 4 5 7 7 8 10 7 5 10 8 13 6 8 13 9 12 16 14 11 7 6 6 11 31 13 40 28 27 22 19 17 -6 0 7 -20 91 41 32 29 -2 11
-2 6 9 7 8 10 7 5 5 10 9 10 10 4 7 10 -3 13 2 8 8 6 11 15 17 16 17 13 14 16 7 -7 21 15 18 14 26 -14 14 10 1 -3 -10 2 3 41 -9
-2 9 8 9 13 12 9 8 10 7 7 9 11 5 7 10 15 2 17 -3 13 3 -2 11 15 14 12 15 15 19 15 0 17 7 8 12 20 7 1 -7 11 9 21 15 24 -16 -23
14 15 17 19 16 10 9 10 7 5 6 7 12 10 7 9 9 32 10 -1 2 18 18 1 6 32 21 22 12 12 13 3 8 -7 -8 1 12 5 34 4 32 -3 4 -1 -19 -18 -6
16 18 14 15 13 13 12 5 3 10 8 7 10 12 13 12 -6 8 11 17 10 7 21 11 3 -6 -8 -4 -9 11 0 -13 -9 -5 19 8 -2 -18 -19 -44 -46 -21 22 14 9 8 9
Height
3108 3102 3096 3090 3084 3077 3072 3067 3059 3052 3044 3037 3032 3026 3020 3013 3008 3007 3004 3002 3001 3002 3004 3008 3012 3012 3013 3026 3034 3045 3053 3061 3065 3072 3076 3082 3088 3093 3097 3101 3106 3111 3116 3119 3121 3123 3126
3110 3104 3099 3094 3087 3081 3076 3071 3066 3058 3051 3043 3036 3029 3024 3018 3013 3011 3009 3007 3006 3007 3010 3012 3018 3018 3023 3028 3037 3046 3055 3062 3068 3073 3078 3082 3087 3092 3098 3101 3107 3112 3116 3117 3119 3122 3124
3111 3106 3102 3096 3091 3085 3080 3075 3071 3063 3056 3049 3041 3033 3030 3023 3018 3015 3014 3014 3013 3012 3016 3018 3024 3027 3030 3036 3043 3051 3058 3065 3071 3076 3081 3085 3090 3095 3099 3103 3107 3110 3115 3116 3118 3121 3122
3114 3108 3104 3099 3095 3089 3084 3079 3075 3069 3063 3057 3049 3042 3035 3031 3025 3023 3021 3021 3021 3022 3025 3028 3033 3037 3039 3043 3049 3057 3063 3069 3074 3078 3084 3088 3092 3095 3099 3103 3107 3110 3113 3115 3116 3118 3119
3117 3111 3107 3102 3097 3093 3087 3083 3079 3074 3069 3063 3056 3049 3042 3037 3033 3030 3026 3028 3029 3030 3031 3034 3040 3043 3043 3052 3057 3062 3066 3071 3075 3080 3085 3089 3092 3095 3099 3102 3105 3108 3110 3113 3114 3115 3116
3121 3115 3109 3105 3100 3095 3091 3087 3082 3078 3073 3068 3063 3056 3050 3044 3043 3039 3037 3035 3036 3040 3041 3042 3044 3050 3056 3059 3060 3064 3069 3074 3078 3082 3086 3090 3093 3096 3099 3101 3103 3106 3109 3110 3111 3114 3113
3123 3118 3113 3108 3103 3098 3094 3090 3086 3081 3077 3072 3069 3064 3059 3055 3052 3050 3047 3043 3040 3044 3046 3048 3054 3057 3062 3065 3068 3071 3074 3078 3081 3084 3087 3091 3096 3098 3100 3103 3103 3105 3108 3109 3111 3110 3110
3126 3120 3115 3111 3107 3102 3097 3092 3089 3085 3081 3076 3072 3070 3067 3064 3061 3060 3061 3052 3050 3053 3050 3055 3060 3065 3066 3069 3072 3077 3081 3082 3084 3085 3090 3095 3096 3098 3100 3102 3104 3105 3108 3109 3109 3107 3107
3130 3123 3118 3114 3110 3106 3102 3096 3091 3088 3083 3079 3075 3073 3070 3069 3067 3067 3065 3061 3060 3063 3059 3070 3071 3071 3074 3077 3078 3080 3084 3085 3087 3089 3092 3094 3097 3098 3101 3103 3105 3105 3106 3107 3107 3105 3104
3135 3128 3122 3117 3113 3109 3105 3100 3096 3092 3086 3082 3078 3076 3073 3071 3072 3069 3068 3065 3064 3065 3068 3081 3079 3082 3083 3082 3083 3083 3085 3088 3088 3092 3094 3096 3098 3100 3101 3102 3104 3104 3105 3106 3105 3104 3103
3139 3133 3127 3122 3117 3112 3108 3104 3100 3096 3092 3086 3082 3078 3075 3073 3073 3071 3072 3070 3067 3066 3072 3085 3084 3084 3082 3083 3085 3087 3088 3090 3092 3094 3097 3098 3099 3100 3101 3102 3103 3105 3105 3105 3104 3102 3100
3142 3137 3131 3126 3120 3116 3112 3108 3104 3100 3097 3091 3087 3082 3079 3077 3075 3073 3072 3072 3071 3072 3088 3093 3091 3089 3088 3087 3088 3089 3090 3092 3094 3096 3097 3098 3100 3101 3102 3102 3103 3104 3104 3103 3102 3101 3100
3145 3140 3135 3129 3124 3119 3115 3111 3108 3104 3100 3096 3092 3088 3083 3080 3078 3075 3074 3075 3075 3079 3095 3097 3094 3092 3092 3092 3092 3093 3094 3094 3095 3099 3099 3100 3101 3101 3102 3103 3104 3104 3104 3104 3106 3103 3101
3147 3142 3138 3132 3127 3122 3118 3114 3111 3107 3103 3100 3097 3093 3089 3086 3081 3079 3078 3077 3075 3089 3092 3096 3096 3096 3096 3096 3097 3097 3097 3096 3097 3097 3099 3100 3104 3103 3103 3104 3105 3104 3105 3105 3111 3107 3099
3149 3144 3140 3136 3131 3126 3121 3117 3113 3110 3107 3103 3100 3098 3095 3092 3089 3086 3085 3079 3088 3092 3095 3096 3097 3098 3097 3097 3098 3097 3098 3099 3099 3098 3099 3100 3102 3102 3103 3103 3105 3104 3104 3105 3104 3102 3100
3150 3145 3142 3138 3134 3129 3124 3119 3116 3113 3110 3107 3104 3102 3100 3097 3095 3093 3092 3087 3092 3094 3096 3097 3098 3099 3099 3099 3100 3100 3099 3099 3099 3099 3099 3099 3101 3102 3103 3103 3103 3103 3105 3104 3103 3104 3098
3150 3147 3143 3140 3136 3132 3128 3123 3118 3114 3112 3110 3108 3105 3103 3101 3100 3099 3094 3094 3097 3098 3098 3100 3099 3099 3098 3098 3099 3100 3101 3102 3100 3100 3100 3100 3101 3103 3102 3100 3101 3102 3101 3101 3102 3100 3099
3150 3147 3144 3140 3137 3134 3130 3126 3121 3117 3113 3111 3109 3107 3106 3104 3103 3099 3098 3097 3099 3100 3101 3101 3101 3101 3101 3100 3100 3099 3100 3101 3101 3101 3101 3100 3101 3100 3100 3099 3100 3100 3099 3099 3099 3098 3096
3149 3147 3144 3141 3138 3134 3131 3128 3124 3119 3115 3113 3110 3109 3107 3106 3105 3102 3100 3100 3101 3100 3101 3101 3103 3102 3102 3101 3102 3101 3101 3101 3100 3100 3100 3100 3099 3098 3097 3099 3096 3094 3094 3095 3095 3094 3089
3146 3145 3143 3141 3138 3135 3132 3128 3125 3121 3117 3114 3111 3110 3108 3107 3106 3106 3104 3103 3101 3101 3101 3101 3101 3101 3102 3102 3101 3101 3101 3101 3100 3099 3098 3097 3095 3095 3093 3092 3091 3088 3086 3087 3088 3086 3078
3143 3142 3141 3139 3137 3135 3132 3129 3126 3122 3119 3116 3112 3110 3109 3108 3106 3105 3105 3104 3103 3102 3102 3101 3100 3100 3100 3100 3101 3100 3100 3099 3098 3097 3096 3095 3091 3089 3087 3086 3085 3081 3078 3079 3076 3074 3071
3141 3139 3138 3136 3134 3133 3131 3129 3126 3122 3119 3117 3114 3111 3108 3106 3106 3104 3103 3103 3102 3102 3101 3101 3100 3100 3099 3098 3098 3098 3098 3097 3096 3095 3093 3091 3088 3084 3077 3079 3075 3068 3067 3066 3063 3062 3059
3137 3136 3135 3133 3131 3130 3129 3127 3125 3122 3119 3116 3113 3110 3108 3106 3104 3104 3103 3101 3101 3100 3100 3099 3099 3098 3097 3097 3096 3095 3094 3093 3092 3090 3089 3088 3086 3084 3075 3074 3070 3060 3053 3053 3053 3054 3054
3133 3132 3130 3129 3127 3126 3125 3124 3122 3119 3117 3114 3112 3110 3106 3105 3103 3101 3100 3100 3099 3098 3096 3096 3095 3095 3096 3093 3092 3092 3090 3088 3085 3084 3083 3083 3083 3083 3073 3071 3069 3053 3051 3051 3049 3048 3047
3128 3126 3126 3124 3124 3122 3120 3119 3118 3116 3113 3111 3108 3108 3105 3102 3100 3098 3097 3097 3096 3094 3094 3092 3092 3091 3089 3089 3088 3086 3084 3083 3080 3078 3078 3079 3081 3081 3076 3070 3057 3045 3047 3047 3045 3044 3043
3121 3120 3119 3118 3118 3117 3115 3114 3112 3111 3109 3107 3105 3102 3102 3100 3097 3096 3095 3093 3092 3090 3090 3089 3089 3088 3086 3084 3084 3083 3081 3079 3078 3076 3075 3076 3076 3079 3076 3074 3061 3045 3044 3043 3042 3036 3037
3113 3112 3112 3111 3110 3110 3109 3108 3107 3106 3104 3103 3101 3099 3097 3096 3094 3091 3091 3089 3088 3087 3086 3085 3084 3084 3083 3080 3078 3077 3077 3077 3075 3073 3070 3071 3071 3070 3072 3070 3049 3043 3042 3041 3042 3041 3034
3104 3103 3103 3102 3102 3102 3102 3101 3101 3099 3098 3097 3096 3093 3092 3090 3089 3087 3085 3085 3083 3083 3082 3081 3082 3079 3078 3078 3077 3075 3072 3072 3069 3067 3066 3066 3066 3063 3063 3063 3046 3038 3039 3039 3036 3031 3029
3092 3094 3094 3094 3094 3094 3095 3095 3094 3093 3092 3090 3090 3087 3085 3084 3084 3082 3080 3079 3078 3077 3076 3076 3078 3076 3076 3075 3074 3072 3069 3066 3064 3061 3059 3058 3055 3055 3052 3039 3036 3035 3033 3031 3026 3023 3021